Weather History for Pine Bluffs Muni, Pine Bluffs, WY

Change the Weather History Date:

Tuesday, December 24, 2013

  Actual Average (KCYS) Record (KCYS)
Temperature  
Mean Temperature 28 °F 28 °F  
Max Temperature 42 °F 38 °F 60 °F (1955)
Min Temperature 14 °F 17 °F -25 °F (1983)
Degree Days  
Heating Degree Days 37 37  
Month to date heating degree days 898  
Since 1 July heating degree days 2646  
Cooling Degree Days 0 0  
Month to date cooling degree days 0  
Year to date cooling degree days 348  
Moisture  
Dew Point 24 °F    
Average Humidity 79    
Maximum Humidity 100    
Minimum Humidity 53    
Precipitation  
Precipitation 0.00 in 0.01 in 0.42 in (1982)
Month to date precipitation 0.39  
Year to date precipitation 15.84  
Snow  
Snow 0.00 in 0.30 in 5.50 in (1982)
Month to date snowfall 6.7  
Since 1 July snowfall 21.0  
Snow Depth -    
Sea Level Pressure  
Sea Level Pressure 30.10 in    
Wind  
Wind Speed 12 mph (WNW)    
Max Wind Speed 33 mph    
Max Gust Speed 44 mph    
Visibility 10 miles    
Events Rain , Snow    
T = Trace of Precipitation, MM = Missing Value Source: NWS Daily Summary

Daily Weather History Graph

Daily Weather History Graph

Search for Another Location

Airport:

Trip Planner

Search our weather history database for the weather conditions in past years. The results will help you decide how hot, cold, wet, or windy it might be!

Date:

Astronomy

Dec. 24, 2013 Rise Set
Actual Time 7:19 AM MST 4:32 PM MST
Civil Twilight 6:48 AM MST 5:03 PM MST
Nautical Twilight 6:13 AM MST 5:38 PM MST
Astronomical Twilight 5:40 AM MST 6:12 PM MST
Moon 11:47 PM MST (12/24) 11:11 AM MST (12/24)
Length of Visible Light 10h 15m
Length of Day
9h 12m
Waning Gibbous, 58% of the Moon is Illuminated
Dec 24
Waning Gibbous
Dec 25
Last Quarter
Jan 1
New
Jan 7
First Quarter
Jan 15
Full

Hourly Weather History & Observations

Time (MST) Temp. Windchill Dew Point Humidity Pressure Visibility Wind Dir Wind Speed Gust Speed Precip Events Conditions
12:15 AM 21.2 °F 16.4 °F 17.6 °F 86% 30.04 in 10.0 mi SSW 3.5 mph - N/A   Clear
12:35 AM 21.2 °F 14.9 °F 17.6 °F 86% 30.03 in 10.0 mi SSE 4.6 mph - N/A   Clear
12:55 AM 21.2 °F 11.7 °F 17.6 °F 86% 30.02 in 10.0 mi SSW 8.1 mph - N/A   Clear
1:15 AM 23.0 °F - 19.4 °F 86% 30.01 in 10.0 mi Calm Calm - N/A   Clear
1:35 AM 28.4 °F 18.0 °F 21.2 °F 74% 30.01 in 10.0 mi SSW 12.7 mph - N/A   Mostly Cloudy
1:55 AM 28.4 °F 19.7 °F 21.2 °F 74% 30.01 in 10.0 mi South 9.2 mph - N/A   Scattered Clouds
2:15 AM 28.4 °F 19.7 °F 21.2 °F 74% 30.01 in 10.0 mi South 9.2 mph - N/A   Scattered Clouds
2:35 AM 28.4 °F 19.1 °F 21.2 °F 74% 30.00 in 10.0 mi South 10.4 mph - N/A   Scattered Clouds
2:55 AM 28.4 °F 22.2 °F 23.0 °F 80% 30.00 in 10.0 mi South 5.8 mph - N/A   Clear
3:15 AM 37.4 °F 30.3 °F 26.6 °F 65% 29.99 in 10.0 mi SW 10.4 mph 17.3 mph N/A   Clear
3:35 AM 35.6 °F 27.1 °F 28.4 °F 75% 29.98 in 10.0 mi WSW 12.7 mph - N/A   Clear
3:55 AM 35.6 °F 28.0 °F 26.6 °F 70% 29.97 in 10.0 mi SSW 10.4 mph - N/A   Clear
4:15 AM 32.0 °F 25.6 °F 23.0 °F 69% 29.97 in 10.0 mi SW 6.9 mph - N/A   Clear
4:35 AM 33.8 °F 26.4 °F 26.6 °F 75% 29.97 in 10.0 mi WSW 9.2 mph - N/A   Clear
4:55 AM 35.6 °F 32.8 °F 26.6 °F 70% 29.98 in 10.0 mi WSW 3.5 mph - N/A   Clear
5:15 AM 32.0 °F 24.8 °F 24.8 °F 75% 29.97 in 10.0 mi South 8.1 mph - N/A   Clear
5:35 AM 32.0 °F 24.8 °F 24.8 °F 75% 29.98 in 10.0 mi SSW 8.1 mph - N/A   Clear
5:55 AM 37.4 °F - 24.8 °F 60% 29.98 in 10.0 mi Calm Calm - N/A   Clear
6:15 AM 41.0 °F 32.2 °F 26.6 °F 57% 29.98 in 10.0 mi WNW 18.4 mph 25.3 mph N/A   Clear
6:35 AM 42.8 °F 34.8 °F 26.6 °F 53% 29.98 in 10.0 mi West 17.3 mph 27.6 mph N/A   Clear
6:55 AM 41.0 °F 33.9 °F 26.6 °F 57% 29.97 in 10.0 mi WSW 12.7 mph - N/A   Clear
7:15 AM 35.6 °F 27.5 °F 26.6 °F 70% 29.97 in 10.0 mi West 11.5 mph 19.6 mph N/A   Clear
7:35 AM 37.4 °F 30.3 °F 26.6 °F 65% 29.96 in 10.0 mi WSW 10.4 mph - N/A   Clear
7:55 AM 41.0 °F 31.6 °F 26.6 °F 57% 29.96 in 10.0 mi West 20.7 mph 25.3 mph N/A   Clear
8:15 AM 42.8 °F 36.2 °F 26.6 °F 53% 29.97 in 10.0 mi West 12.7 mph 28.8 mph N/A   Clear
8:35 AM 42.8 °F 35.1 °F 28.4 °F 57% 29.97 in 10.0 mi WNW 16.1 mph 25.3 mph N/A   Clear
8:55 AM 42.8 °F 34.8 °F 28.4 °F 57% 29.98 in 10.0 mi WNW 17.3 mph 23.0 mph N/A   Clear
9:15 AM 42.8 °F 35.1 °F 28.4 °F 57% 29.98 in 10.0 mi West 16.1 mph 21.9 mph N/A   Clear
9:35 AM 42.8 °F 32.7 °F 28.4 °F 57% 30.00 in 10.0 mi West 27.6 mph 39.1 mph N/A   Mostly Cloudy
9:55 AM 41.0 °F 30.0 °F 32.0 °F 70% 30.03 in 10.0 mi NW 28.8 mph 36.8 mph N/A   Overcast
10:15 AM 33.8 °F 21.9 °F 32.0 °F 93% 30.06 in 7.0 mi North 21.9 mph 29.9 mph N/A Rain Rain
10:35 AM 32.0 °F 18.9 °F 32.0 °F 100% 30.08 in 1.2 mi North 24.2 mph 28.8 mph N/A Snow Light Snow
10:55 AM 32.0 °F 19.5 °F 30.2 °F 93% 30.08 in 5.0 mi North 21.9 mph 32.2 mph N/A Snow Light Snow
11:15 AM 32.0 °F 19.5 °F 30.2 °F 93% 30.08 in 4.0 mi NNW 21.9 mph 26.5 mph N/A Snow Light Snow
11:35 AM 32.0 °F 19.2 °F 30.2 °F 93% 30.08 in 3.0 mi NNW 23.0 mph 33.4 mph N/A Snow Light Snow
11:55 AM 32.0 °F 19.5 °F 30.2 °F 93% 30.08 in 10.0 mi NNW 21.9 mph 31.1 mph N/A   Mostly Cloudy
12:15 PM 33.8 °F 21.3 °F 30.2 °F 87% 30.09 in 10.0 mi NNW 24.2 mph 35.7 mph N/A   Scattered Clouds
12:35 PM 33.8 °F 20.8 °F 30.2 °F 87% 30.08 in 10.0 mi NNW 26.5 mph 36.8 mph N/A   Mostly Cloudy
12:55 PM 33.8 °F 19.9 °F 30.2 °F 87% 30.07 in 10.0 mi NNW 31.1 mph 39.1 mph N/A   Scattered Clouds
1:15 PM 35.6 °F 22.1 °F 28.4 °F 75% 30.08 in 10.0 mi NNW 32.2 mph 43.7 mph N/A   Clear
1:35 PM 35.6 °F 22.5 °F 28.4 °F 75% 30.10 in 10.0 mi NNW 29.9 mph 41.4 mph N/A   Clear
1:55 PM 35.6 °F 22.7 °F 28.4 °F 75% 30.10 in 10.0 mi NNW 28.8 mph 43.7 mph N/A   Clear
2:15 PM 35.6 °F 22.7 °F 26.6 °F 70% 30.11 in 10.0 mi NNW 28.8 mph 40.3 mph N/A   Clear
2:35 PM 33.8 °F 19.4 °F 26.6 °F 75% 30.12 in 10.0 mi NNW 33.4 mph 41.4 mph N/A   Clear
2:50 PM 33.8 °F 20.1 °F 28.4 °F 81% 30.13 in 10.0 mi NNW 29.9 mph 36.8 mph N/A   Clear
3:15 PM 33.8 °F 20.3 °F 26.6 °F 75% 30.14 in 10.0 mi NNW 28.8 mph 34.5 mph N/A   Clear
3:35 PM 33.8 °F 20.1 °F 26.6 °F 75% 30.14 in 10.0 mi NNW 29.9 mph 35.7 mph N/A   Clear
3:55 PM 32.0 °F 17.6 °F 24.8 °F 75% 30.15 in 10.0 mi NNW 29.9 mph 39.1 mph N/A   Clear
4:15 PM 32.0 °F 18.4 °F 26.6 °F 80% 30.18 in 10.0 mi NNW 26.5 mph 35.7 mph N/A   Clear
4:35 PM 30.2 °F 17.8 °F 26.6 °F 86% 30.20 in 10.0 mi NNW 19.6 mph 28.8 mph N/A   Scattered Clouds
4:55 PM 30.2 °F 18.1 °F 26.6 °F 86% 30.21 in 10.0 mi NW 18.4 mph 25.3 mph N/A   Clear
5:15 PM 28.4 °F 17.0 °F 26.6 °F 93% 30.22 in 10.0 mi NW 15.0 mph - N/A   Clear
5:35 PM 28.4 °F 17.5 °F 26.6 °F 93% 30.22 in 10.0 mi NW 13.8 mph - N/A   Clear
5:55 PM 26.6 °F 19.1 °F 24.8 °F 93% 30.24 in 10.0 mi NW 6.9 mph - N/A   Scattered Clouds
6:15 PM 26.6 °F 20.0 °F 23.0 °F 86% 30.24 in 10.0 mi WNW 5.8 mph - N/A   Clear
6:35 PM 23.0 °F 17.0 °F 21.2 °F 93% 30.25 in 10.0 mi NW 4.6 mph - N/A   Clear
6:55 PM 23.0 °F - 21.2 °F 93% 30.25 in 10.0 mi Calm Calm - N/A   Clear
7:15 PM 23.0 °F 17.0 °F 21.2 °F 93% 30.26 in 10.0 mi NW 4.6 mph - N/A   Clear
7:35 PM 23.0 °F 14.7 °F 19.4 °F 86% 30.25 in 10.0 mi WNW 6.9 mph - N/A   Clear
7:55 PM 19.4 °F 11.5 °F 17.6 °F 93% 30.25 in 10.0 mi SW 5.8 mph - N/A   Clear
8:15 PM 21.2 °F 13.6 °F 17.6 °F 86% 30.25 in 10.0 mi West 5.8 mph - N/A   Clear
8:35 PM 23.0 °F 12.4 °F 19.4 °F 86% 30.24 in 10.0 mi WNW 10.4 mph - N/A   Clear
8:55 PM 23.0 °F 12.4 °F 17.6 °F 80% 30.24 in 10.0 mi WNW 10.4 mph - N/A   Clear
9:15 PM 19.4 °F 9.5 °F 17.6 °F 93% 30.24 in 10.0 mi West 8.1 mph - N/A   Clear
9:35 PM 23.0 °F 13.9 °F 17.6 °F 80% 30.24 in 10.0 mi West 8.1 mph - N/A   Clear
9:55 PM 19.4 °F 9.5 °F 15.8 °F 86% 30.25 in 10.0 mi West 8.1 mph - N/A   Clear
10:15 PM 17.6 °F 8.2 °F 14.0 °F 86% 30.25 in 10.0 mi West 6.9 mph - N/A   Clear
10:35 PM 15.8 °F 10.2 °F 12.2 °F 86% 30.25 in 10.0 mi West 3.5 mph - N/A   Clear
10:55 PM 14.0 °F - 12.2 °F 93% 30.25 in 10.0 mi Calm Calm - N/A   Clear
11:15 PM 14.0 °F 8.2 °F 12.2 °F 93% 30.25 in 10.0 mi WSW 3.5 mph - N/A   Clear
11:35 PM 15.8 °F 5.1 °F 12.2 °F 86% 30.24 in 10.0 mi West 8.1 mph - N/A   Clear
11:55 PM 17.6 °F 5.7 °F 12.2 °F 79% 30.24 in 10.0 mi West 10.4 mph - N/A   Clear